This is the latest recevied weather packets stored in our database for station/object SP1BMW-13. If no packets are shown the sender has not sent any weather packets the latest 10 day(s).
| Time | Temp. | Humidity | Pressure | Rain* | Wind** | Luminosity | Snow |
|---|---|---|---|---|---|---|---|
| 1787469250 | 15° C | 79% | 1016.7 hPa | 0 mm | 1.34 m/s, 266° | 113 W/m² | - |
| 1787469190 | 15° C | 80% | 1016.7 hPa | 0 mm | 1.79 m/s, 131° | 112 W/m² | - |
| 1787469130 | 15° C | 80% | 1016.6 hPa | 0 mm | 0.45 m/s, 224° | 106 W/m² | - |
| 1787469070 | 15° C | 79% | 1016.7 hPa | 0 mm | 0.89 m/s, 208° | 88 W/m² | - |
| 1787469010 | 15° C | 79% | 1016.7 hPa | 0 mm | 0 m/s | 82 W/m² | - |
| 1787468950 | 15° C | 79% | 1016.6 hPa | 0 mm | 1.34 m/s, 204° | 87 W/m² | - |
| 1787468890 | 15° C | 78% | 1016.6 hPa | 0 mm | 0.89 m/s, 213° | 108 W/m² | - |
| 1787468830 | 15° C | 78% | 1016.6 hPa | 0 mm | 2.24 m/s, 261° | 112 W/m² | - |
| 1787468770 | 15° C | 79% | 1016.8 hPa | 0 mm | 1.34 m/s, 246° | 120 W/m² | - |
| 1787468709 | 15° C | 79% | 1016.5 hPa | 0 mm | 1.34 m/s, 275° | 128 W/m² | - |
| 1787468649 | 15° C | 79% | 1016.5 hPa | 0 mm | 0.45 m/s, 199° | 124 W/m² | - |
| 1787468589 | 15° C | 79% | 1016.5 hPa | 0 mm | 1.34 m/s, 317° | 136 W/m² | - |
| 1787468529 | 15° C | 78% | 1016.6 hPa | 0 mm | 1.34 m/s, 273° | 144 W/m² | - |
| 1787468469 | 15° C | 79% | 1016.7 hPa | 0 mm | 2.24 m/s, 233° | 152 W/m² | - |
| 1787468409 | 15° C | 79% | 1016.6 hPa | 0 mm | 0.45 m/s, 259° | 149 W/m² | - |
| 1787468349 | 15° C | 79% | 1016.5 hPa | 0 mm | 1.79 m/s, 245° | 148 W/m² | - |
| 1787468289 | 15° C | 79% | 1016.6 hPa | 0 mm | 1.79 m/s, 278° | 160 W/m² | - |
| 1787468230 | 15° C | 79% | 1016.5 hPa | 0 mm | 2.68 m/s, 215° | 137 W/m² | - |
| 1787468170 | 15° C | 80% | 1016.6 hPa | 0 mm | 1.34 m/s, 243° | 126 W/m² | - |
| 1787468110 | 15° C | 80% | 1016.5 hPa | 0 mm | 2.24 m/s, 255° | 115 W/m² | - |
| 1787468050 | 15° C | 81% | 1016.4 hPa | 0 mm | 0.45 m/s, 342° | 117 W/m² | - |
| 1787467990 | 15° C | 81% | 1016.6 hPa | 0 mm | 0.89 m/s, 72° | 96 W/m² | - |
| 1787467930 | 15° C | 81% | 1016.4 hPa | 0 mm | 0.89 m/s, 227° | 98 W/m² | - |
| 1787467870 | 15° C | 80% | 1016.6 hPa | 0 mm | 0.89 m/s, 266° | 110 W/m² | - |
| 1787467809 | 15° C | 80% | 1016.5 hPa | 0 mm | 1.34 m/s, 243° | 91 W/m² | - |
* Rain latest hour (hover to see other rain measurements)
** Current wind speed in m/s (hover to see current wind gust speed)